Location: Maccacari
(45.1333°N, 11.1333°E)
Time: 11:36:45
(UTC+00:00)

Vanguard 2 - Pass Details

Date: 25 January 2021
Orbit: 552 x 2938 km, 32.9° (Epoch: 24 February)

Event Time Altitude Azimuth Distance (km) Brightness Sun altitude
Rises 17:00:09 0° 240° (WSW) 2,716 12.4 -8.5°
Reaches altitude 10° 17:02:46 10° 220° (SW) 1,886 10.5 -8.9°
Maximum altitude 17:05:41 18° 175° (S) 1,558 9.3 -9.4°
Drops below altitude 10° 17:09:06 10° 132° (SE) 2,283 9.7 -10.0°
Enters shadow 17:11:49 - 118° (ESE) 3,218 10.3 -10.4°
Sets 17:12:44 0° 115° (ESE) 3,557 - -10.6°
